Retour au catalogue

GO-32

TECHSAT 1B

ActifRadio amateurSSO
NORAD 25397·PAYLOAD·🇮🇱 Israel

Lancé Jul 10, 1998 depuis Baikonur Cosmodrome

Loading…

Prochains Passages (prochaines 24 heures)

TLE

FraisSource: Space-Track

Époque: Sep 14, 2026, 09:54 UTC

1 25397U 98043D   26257.41299807  .00000025  00000-0  30886-4 0  9998
2 25397  99.0152 252.4556 0001057  13.7115 346.4091 14.24442711464038

Suivez GO-32 en temps réel avec AllMySat

Download on the App Store